{"data":{"norad_id":67017,"epoch":"2026-09-20T14:06:57.047328Z","epoch_age_seconds":73621,"freshness":"FRESH","line1":"1 67017U 25293Q   26263.58816027  .00002841  00000+0  24572-3 0  9995","line2":"2 67017  70.0015 322.9715 0003632 270.6864  89.3879 14.98336942 44081","mean_motion":14.98336942,"eccentricity":0.0003632,"inclination_deg":70.0015,"raan_deg":322.9715,"arg_perigee_deg":270.6864,"mean_anomaly_deg":89.3879,"bstar":0.00024572,"rev_number":4408,"period_min":96.10655384882,"perigee_km":569.51012120395,"apogee_km":574.55872572595,"semimajor_km":6950.1714234649,"source":"CELESTRAK","updated_at":"2026-09-21T09:00:36.071207Z"}}